Hourly Data Report for November 23, 2017

TORONTO CITY
ONTARIO

43°40'00.000" N
79°24'00.000" W
112.50 m
6158355
71508
XTO

Download Data

Hourly Data (November 2017)
Hourly Data Report for November 23, 2017
TIME
LST
Temp Definition
°C
Dew Point Definition
°C
Rel Hum Definition
%
Precip. Amount Definition
mm

Wind Dir Definition
10's deg

Wind Spd Definition
km/h
Visibility Definition
km
Stn Press Definition
kPa
Hmdx Definition


Wind Chill Definition


Weather Definition


00:00 -0.1 -7.1 59 0.0 LegendMM LegendMM   100.80     LegendNANA
01:00 -0.1 -6.8 61 0.0 LegendMM LegendMM   100.76     LegendNANA
02:00 -0.1 -6.3 63 0.0 LegendMM LegendMM   100.72     LegendNANA
03:00 0.2 -6.4 61 0.0 LegendMM LegendMM   100.70     LegendNANA
04:00 0.1 -6.5 61 0.0 LegendMM LegendMM   100.68     LegendNANA
05:00 0.0 -6.6 61 0.0 LegendMM LegendMM   100.62     LegendNANA
06:00 0.0 -7.1 59 0.0 LegendMM LegendMM   100.57     LegendNANA
07:00 0.2 -7.4 57 0.0 LegendMM LegendMM   100.54     LegendNANA
08:00 0.7 -7.1 56 0.0 LegendMM LegendMM   100.54     LegendNANA
09:00 1.2 -6.7 56 0.0 LegendMM LegendMM   100.51     LegendNANA
10:00 1.8 -6.6 54 0.0 LegendMM LegendMM   100.40     LegendNANA
11:00 2.2 -6.1 54 0.0 LegendMM LegendMM   100.34     LegendNANA
12:00 2.7 -5.7 54 0.0 LegendMM LegendMM   100.24     LegendNANA
13:00 3.3 -5.9 51 0.0 LegendMM LegendMM   100.13     LegendNANA
14:00 3.8 -5.8 49 0.0 LegendMM LegendMM   100.02     LegendNANA
15:00 4.1 -8.0 41 0.0 LegendMM LegendMM   99.98     LegendNANA
16:00 3.9 -9.5 37 0.0 LegendMM LegendMM   99.95     LegendNANA
17:00 3.6 -10.2 36 0.0 LegendMM LegendMM   99.95     LegendNANA
18:00 3.4 -8.4 41 0.0 LegendMM LegendMM   99.98     LegendNANA
19:00 3.5 -5.8 50 0.0 LegendMM LegendMM   100.02     LegendNANA
20:00 3.6 -5.0 54 0.0 LegendMM LegendMM   100.01     LegendNANA
21:00 3.6 -5.2 53 0.0 LegendMM LegendMM   99.97     LegendNANA
22:00 3.5 -4.2 57 0.0 LegendMM LegendMM   100.00     LegendNANA
23:00 3.5 -3.9 58 0.0 LegendMM LegendMM   100.00     LegendNANA

Notes on Data Quality.

Legend

  • E = Estimated
  • M = Missing
  • NA = Not Available*
  • [empty] = Indicates an unobserved value
Date modified: